Regional Weather Roundup
Issued by NWS

Home | Current Version | Previous Version | Graphics & Text | Print | Product List | Glossary On
Versions: 1 2 3 4 5 6 7 8 9 10 11 12 13 14 15 16 17 18 19 20 21 22 23 24 25 26 27 28 29 30 31 32 33 34 35 36 37 38 39 40 41 42 43 44 45 46 47 48 49 50
000
ASUS43 KTOP 191159
RWRKS

WEATHER ROUNDUP FOR KANSAS
NATIONAL WEATHER SERVICE GOODLAND KS
600 AM CST MON FEB 19 2018

NOTE:  "FAIR" INDICATES FEW OR NO CLOUDS BELOW 12,000 FEET WITH NO
SIGNIFICANT WEATHER AND/OR OBSTRUCTIONS TO VISIBILITY.

KSZ001>006-013>018-027>032-041>047-191300-
NORTHWEST KANSAS

CITY           SKY/WX    TMP DP  RH WIND       PRES   REMARKS
GOODLAND       CLOUDY    14  11  87 N16G28    29.74R WCI  -2
6HR MIN TEMP:  14; 6HR MAX TEMP:  25; 6HR PCP: TRACE;

HAYS           CLOUDY    24  20  84 N22G30    29.77R WCI   9
HILL CITY      CLOUDY    21  19  92 N23G32    29.78S WCI   5
6HR MIN TEMP:  21; 6HR MAX TEMP:  31; 6HR PCP: TRACE;

RUSSELL        CLOUDY    26  24  92 N25G35    29.74R WCI  11
6HR MIN TEMP:  26; 6HR MAX TEMP:  56;

$$

KSZ061>065-074>080-084>089-191300-
SOUTHWEST KANSAS

CITY           SKY/WX    TMP DP  RH WIND       PRES   REMARKS
DODGE CITY     CLOUDY    25  50 100 N23       29.73R WCI  10
6HR MIN TEMP:  25; 6HR MAX TEMP:  64;

GARDEN CITY    CLOUDY    22  19  89 N20G30    29.74R WCI   7
6HR MIN TEMP:  22; 6HR MAX TEMP:  57;

GREAT BEND     CLOUDY    27  24  89 N18G29    29.74R WCI  14
LIBERAL        CLOUDY    30  25  81 NE20      29.73R WCI  17
$$

KSZ066>073-081>083-090>101-191300-
SOUTHEAST KANSAS

CITY           SKY/WX    TMP DP  RH WIND       PRES   REMARKS
CHANUTE        CLOUDY    63  60  90 S24G39    29.68S
6HR MIN TEMP:  54; 6HR MAX TEMP:  63; 6HR PCP: TRACE;

COFFEYVILLE    CLOUDY    64  59  83 S21G32    29.71F
6HR MIN TEMP:  55; 6HR MAX TEMP:  64;

HUTCHINSON     CLOUDY    36  31  82 NW21G26   29.67R WCI  25
6HR MIN TEMP:  36; 6HR MAX TEMP:  63;

MEDICINE LODGE   N/A     36  30  79 NW20G28   29.69R WCI  25
NEWTON         CLOUDY    48  42  80 NW18      29.65R
PARSONS        CLOUDY    63  60  90 S20G30    29.71S
6HR MIN TEMP:  55; 6HR MAX TEMP:  63; 6HR PCP: TRACE;

WICHITA INTL   MOCLDY    63  60  90 SW21G36   29.61R
6HR MIN TEMP:  56; 6HR MAX TEMP:  63;

WICHITA JABRA  CLOUDY    63  60  90 SW25G33   29.61R
6HR MIN TEMP:  54; 6HR MAX TEMP:  64;

WICHITA MCCONL CLOUDY    64  59  85 SW26G35   29.61
WINFIELD       MOCLDY    66  61  84 S24G39    29.65F
6HR MIN TEMP:  57; 6HR MAX TEMP:  66;

$$

KSZ007>012-019>026-033>040-048>060-102>105-191300-
NORTHEAST KANSAS

CITY           SKY/WX    TMP DP  RH WIND       PRES   REMARKS
CONCORDIA      CLOUDY    26  24  92 N20G30    29.73R FOG     WCI  12
6HR MIN TEMP:  26; 6HR MAX TEMP:  53;

EMPORIA        CLOUDY    63  59  87 S18       29.62R
6HR MIN TEMP:  51; 6HR MAX TEMP:  63;

LAWRENCE       CLOUDY    62  59  90 S15       29.60R
6HR MIN TEMP:  53; 6HR MAX TEMP:  62;

MANHATTAN      CLOUDY    39  33  79 N9G23     29.64R
6HR MIN TEMP:  39; 6HR MAX TEMP:  63; 6HR PCP: TRACE;

OLATHE IND     CLOUDY    61  59  93 S18G25    29.65R
6HR MIN TEMP:  52; 6HR MAX TEMP:  61;

OLATHE EXE     CLOUDY    59  59 100 S20G26    29.64R
6HR MIN TEMP:  52; 6HR MAX TEMP:  61;

SALINA         CLOUDY    34  29  82 N25G31    29.70R WCI  21
6HR MIN TEMP:  34; 6HR MAX TEMP:  63;

TOPEKA BILLARD CLOUDY    63  60  90 S8        29.60R
6HR MIN TEMP:  54; 6HR MAX TEMP:  63;

TOPEKA FORBES  CLOUDY    64  60  87 SW14G23   29.60R
6HR MIN TEMP:  54; 6HR MAX TEMP:  64;

$$



USA.gov is the U.S. government's official web portal to all federal, state and local government web resources and services.